TimePDT,TemperatureF,Dew PointF,Humidity,Sea Level PressureIn,VisibilityMPH,Wind Direction,Wind SpeedMPH,Gust SpeedMPH,PrecipitationIn,Events,Conditions,WindDirDegrees,DateUTC
12:55 AM,54.7,48.2,79,30.07,10.0,Calm,Calm,-,N/A,,Clear,0,2012-10-27 07:55:00
1:55 AM,55.9,49.3,78,30.06,10.0,SSW,5.8,-,N/A,,Clear,200,2012-10-27 08:55:00
2:55 AM,50.9,50.4,98,30.07,10.0,Calm,Calm,-,N/A,,Clear,0,2012-10-27 09:55:00
3:55 AM,49.5,47.3,92,30.05,10.0,Calm,Calm,-,N/A,,Clear,0,2012-10-27 10:55:00
4:55 AM,48.7,46.9,93,30.05,6.0,Calm,Calm,-,N/A,,Clear,0,2012-10-27 11:55:00
5:55 AM,50.7,46.4,85,30.06,10.0,Calm,Calm,-,N/A,,Clear,0,2012-10-27 12:55:00
6:55 AM,48.4,46.2,92,30.06,10.0,Calm,Calm,-,N/A,,Clear,0,2012-10-27 13:55:00
7:55 AM,49.3,48.2,96,30.06,7.0,West,5.8,-,N/A,,Clear,260,2012-10-27 14:55:00
8:55 AM,58.3,53.8,85,30.07,5.0,Calm,Calm,-,N/A,,Haze,0,2012-10-27 15:55:00
9:55 AM,65.8,50.0,57,30.07,10.0,Calm,Calm,-,N/A,,Clear,0,2012-10-27 16:55:00
10:55 AM,69.1,51.8,54,30.07,10.0,WSW,3.5,-,N/A,,Clear,240,2012-10-27 17:55:00
11:55 AM,72.5,52.0,48,30.05,10.0,North,8.1,-,N/A,,Clear,10,2012-10-27 18:55:00
12:55 PM,76.8,53.2,44,30.02,10.0,North,5.8,-,N/A,,Clear,360,2012-10-27 19:55:00
1:55 PM,79.0,51.6,38,29.99,8.0,NNE,9.2,-,N/A,,Clear,20,2012-10-27 20:55:00
2:55 PM,80.2,50.9,36,29.97,10.0,NNE,10.4,-,N/A,,Clear,30,2012-10-27 21:55:00
3:55 PM,80.8,50.9,35,29.95,4.0,NE,5.8,-,N/A,,Haze,50,2012-10-27 22:55:00
4:05 PM,80.6,50.0,34,29.95,2.5,East,6.9,-,N/A,,Haze,90,2012-10-27 23:05:00
4:07 PM,80.6,50.0,34,29.95,2.0,ENE,4.6,-,N/A,,Haze,70,2012-10-27 23:07:00
4:08 PM,80.6,50.0,34,29.95,1.8,ENE,3.5,-,N/A,,Haze,70,2012-10-27 23:08:00
4:09 PM,80.6,50.0,34,29.95,1.5,ENE,3.5,-,N/A,,Haze,70,2012-10-27 23:09:00
4:14 PM,80.6,51.8,37,29.95,1.8,NNE,4.6,-,N/A,,Haze,30,2012-10-27 23:14:00
4:15 PM,80.6,51.8,37,29.95,2.0,NNE,5.8,-,N/A,,Haze,30,2012-10-27 23:15:00
4:16 PM,80.6,51.8,37,29.95,2.5,NE,5.8,-,N/A,,Haze,40,2012-10-27 23:16:00
4:17 PM,80.6,51.8,37,29.95,3.0,NE,5.8,-,N/A,,Haze,40,2012-10-27 23:17:00
4:50 PM,78.8,53.6,42,29.94,2.5,East,9.2,-,N/A,,Haze,100,2012-10-27 23:50:00
4:51 PM,78.8,53.6,42,29.94,2.0,Variable,6.9,-,N/A,,Haze,0,2012-10-27 23:51:00
4:52 PM,78.8,53.6,42,29.94,1.5,Variable,5.8,-,N/A,,Haze,0,2012-10-27 23:52:00
4:54 PM,78.8,53.6,42,29.94,1.2,East,6.9,-,N/A,,Haze,90,2012-10-27 23:54:00
4:55 PM,79.3,53.8,41,29.94,1.0,East,5.8,-,N/A,,Haze,90,2012-10-27 23:55:00
5:12 PM,78.8,53.6,42,29.94,1.5,ESE,5.8,-,N/A,,Haze,120,2012-10-28 00:12:00
5:17 PM,78.8,53.6,42,29.94,1.2,ESE,4.6,-,N/A,,Haze,120,2012-10-28 00:17:00
5:25 PM,77.0,53.6,44,29.94,1.5,ESE,3.5,-,N/A,,Haze,110,2012-10-28 00:25:00
5:27 PM,77.0,53.6,44,29.94,1.8,ESE,3.5,-,N/A,,Haze,120,2012-10-28 00:27:00
5:28 PM,77.0,53.6,44,29.94,2.0,ESE,3.5,-,N/A,,Haze,120,2012-10-28 00:28:00
5:29 PM,77.0,53.6,44,29.94,2.5,Calm,Calm,-,N/A,,Haze,0,2012-10-28 00:29:00
5:30 PM,77.0,53.6,44,29.94,3.0,Calm,Calm,-,N/A,,Haze,0,2012-10-28 00:30:00
5:55 PM,75.7,55.0,49,29.94,10.0,Calm,Calm,-,N/A,,Clear,0,2012-10-28 00:55:00
6:28 PM,69.8,55.4,60,29.94,2.5,WSW,3.5,-,N/A,,Haze,240,2012-10-28 01:28:00
6:34 PM,68.0,55.4,64,29.94,2.0,West,4.6,-,N/A,,Haze,260,2012-10-28 01:34:00
6:35 PM,68.0,55.4,64,29.94,1.8,West,4.6,-,N/A,,Haze,260,2012-10-28 01:35:00
6:36 PM,68.0,55.4,64,29.94,1.5,West,4.6,-,N/A,,Haze,260,2012-10-28 01:36:00
6:37 PM,68.0,55.4,64,29.94,1.2,West,4.6,-,N/A,,Haze,260,2012-10-28 01:37:00
6:42 PM,66.2,57.2,73,29.94,0.8,West,4.6,-,N/A,,Haze,260,2012-10-28 01:42:00
6:44 PM,66.2,57.2,73,29.94,1.0,West,5.8,-,N/A,,Haze,270,2012-10-28 01:44:00
6:55 PM,67.6,54.7,63,29.94,1.0,West,4.6,-,N/A,,Haze,260,2012-10-28 01:55:00
6:58 PM,68.0,55.4,64,29.94,0.8,West,3.5,-,N/A,,Haze,270,2012-10-28 01:58:00
7:14 PM,64.4,55.4,73,29.95,1.0,Calm,Calm,-,N/A,,Haze,0,2012-10-28 02:14:00
7:23 PM,64.4,55.4,73,29.95,1.5,Calm,Calm,-,N/A,,Haze,0,2012-10-28 02:23:00
7:25 PM,64.4,55.4,73,29.95,1.2,Calm,Calm,-,N/A,,Haze,0,2012-10-28 02:25:00
7:55 PM,62.2,55.2,78,29.95,1.0,Calm,Calm,-,N/A,,Haze,0,2012-10-28 02:55:00
8:41 PM,62.6,55.4,77,29.95,0.8,SW,4.6,-,N/A,,Haze,230,2012-10-28 03:41:00
8:45 PM,60.8,55.4,82,29.95,1.0,SW,4.6,-,N/A,,Haze,220,2012-10-28 03:45:00
8:55 PM,60.3,55.2,83,29.95,1.0,WSW,5.8,-,N/A,,Haze,240,2012-10-28 03:55:00
9:44 PM,60.8,55.4,82,29.95,1.5,SSW,3.5,-,N/A,,Haze,200,2012-10-28 04:44:00
9:54 PM,60.8,55.4,82,29.96,1.8,SSW,6.9,-,N/A,,Haze,210,2012-10-28 04:54:00
9:55 PM,61.0,56.1,84,29.96,1.8,SW,6.9,-,N/A,,Haze,220,2012-10-28 04:55:00
9:57 PM,60.8,55.4,82,29.95,2.0,SSW,5.8,-,N/A,,Haze,210,2012-10-28 04:57:00
10:04 PM,60.8,55.4,82,29.96,1.8,SSW,5.8,-,N/A,,Haze,200,2012-10-28 05:04:00
10:09 PM,60.8,55.4,82,29.96,1.5,SSW,3.5,-,N/A,,Haze,210,2012-10-28 05:09:00
10:19 PM,60.8,57.2,88,29.96,1.8,SSW,5.8,-,N/A,,Haze,200,2012-10-28 05:19:00
10:43 PM,60.8,57.2,88,29.96,1.5,WSW,5.8,-,N/A,,Clear,240,2012-10-28 05:43:00
10:52 PM,60.8,57.2,88,29.96,1.8,SSW,5.8,-,N/A,,Haze,200,2012-10-28 05:52:00
10:55 PM,60.3,56.3,87,29.96,1.8,SSW,4.6,-,N/A,,Haze,200,2012-10-28 05:55:00
10:57 PM,60.8,55.4,82,29.96,1.5,SSW,4.6,-,N/A,,Clear,210,2012-10-28 05:57:00
11:02 PM,59.0,55.4,88,29.96,1.2,SW,4.6,-,N/A,,Clear,220,2012-10-28 06:02:00
11:11 PM,59.0,57.2,94,29.96,1.5,SW,6.9,-,N/A,,Clear,230,2012-10-28 06:11:00
11:22 PM,59.0,55.4,88,29.96,1.2,WSW,5.8,-,N/A,,Clear,240,2012-10-28 06:22:00
11:45 PM,59.0,55.4,88,29.96,1.5,SSW,4.6,-,N/A,,Clear,210,2012-10-28 06:45:00
11:47 PM,59.0,55.4,88,29.96,1.8,SW,4.6,-,N/A,,Clear,220,2012-10-28 06:47:00
11:49 PM,59.0,55.4,88,29.96,2.0,SW,4.6,-,N/A,,Clear,220,2012-10-28 06:49:00
11:51 PM,59.0,55.4,88,29.96,2.5,SW,4.6,-,N/A,,Clear,220,2012-10-28 06:51:00
11:55 PM,60.3,55.8,85,29.96,2.0,SW,5.8,-,N/A,,Haze,220,2012-10-28 06:55:00